www.pogodaiklimat.ru
Время
и дата
04:51 04.10
05:51 04.10
06:51 04.10
07:51 04.10
08:51 04.10
09:51 04.10
10:51 04.10
11:51 04.10
12:51 04.10
13:51 04.10
14:51 04.10
15:51 04.10
16:51 04.10
17:51 04.10
18:51 04.10
19:51 04.10
20:51 04.10
21:51 04.10
22:51 04.10
23:51 04.10
00:51 05.10
01:51 05.10
02:51 05.10
03:51 05.10
04:51 05.10
05:51 05.10
06:51 05.10
07:51 05.10
08:51 05.10
09:51 05.10
10:51 05.10
11:51 05.10
12:51 05.10
13:51 05.10
14:51 05.10
15:51 05.10
16:51 05.10
17:51 05.10
18:51 05.10
19:51 05.10
20:51 05.10
21:51 05.10
22:51 05.10
23:51 05.10
00:51 06.10
01:51 06.10
02:51 06.10
03:51 06.10
Ветер
(напр.,м/с)
Видим. Явления Облачность Т
(С)
Тd
(С)
f
(%)
Тe
(С)
Тes
(С)
Комфортность P
(гПа)
Po
(гПа)
Тmin
(С)
Tmax
(С)
R
(мм)
R24
(мм)
S
(см)
штиль 0 16 км 2/0 3000 m
[Ac Ci]
+7.2 +5.0 86 +6 +6 1024.9 1000.2
штиль 0 16 км 2/0 3300 m
[Ac Ci]
+7.8 +5.0 82 +7 +7 1024.9 1000.2 +7.2 +9.4
штиль 0 16 км 2/0 3300 m
[Ac Ci]
+9.4 +7.2 86 +9 +9 1024.9 1000.2
ЮЗ 3 14 км 2/0 7500 m
[Ci]
+12.2 +7.8 74 +11 +11 1024.9 1000.2
нст 2 16 км 2/0 7500 m
[Ci]
+15.6 +6.7 55 +16 +18 1024.9 1000.2
нст 2 16 км 5/0 7500 m
[Ci]
+17.8 +5.0 43 +18 +23 1024.4 999.8
З 3 16 км 2/0 7500 m
[Ci]
+20.0 +3.3 33 +21 +27 комфорт 1023.9 999.5
нст 2 16 км 5/0 7500 m
[Ci]
+21.1 +2.8 30 +21 +30 комфорт 1023.4 998.8 +7.8 +21.1
нст 3 16 км 5/0 7500 m
[Ci]
+21.7 +1.7 27 +21 +29 комфорт 1022.5 998.2
нст 2 16 км 5/0 7500 m
[Ci]
+22.8 +1.7 25 +22 +30 комфорт 1021.8 997.2
Ю 3 16 км 8/0 7500 m
[Ci]
+22.8 +0.6 23 +22 +27 комфорт 1021.3 996.9
нст 2 16 км 8/0 7500 m
[Ci]
+22.2 +1.1 25 +22 +25 комфорт 1021.0 996.5
В 2 16 км 8/0 7500 m
[Ci]
+20.6 +5.6 37 +22 +24 комфорт 1021.1 996.5
ЮВ 2 16 км 8/0 7500 m
[Ci]
+17.8 +6.1 46 +18 +19 1021.2 996.5 +17.8 +23.3
ЮВ 3 16 км 5/0 7500 m
[Ci]
+16.7 +6.1 50 +17 +17 1021.2 996.9
штиль 0 16 км 5/0 7500 m
[Ci]
+16.1 +6.7 54 +16 +16 1021.1 996.5
штиль 0 16 км 8/0 7500 m
[Ci]
+13.9 +7.2 64 +14 +14 1021.0 996.5
штиль 0 16 км 8/0 7500 m
[Ci]
+13.3 +7.2 67 +13 +13 1021.1 996.5
штиль 0 16 км 8/0 7500 m
[Ci]
+12.2 +7.2 71 +12 +12 1020.7 996.2
штиль 0 16 км 8/0 7500 m
[Ci]
+11.7 +6.7 71 +11 +11 1020.3 995.9 +11.7 +17.8
штиль 0 14 км 8/0 7500 m
[Ci]
+11.1 +6.7 74 +11 +11 1020.0 995.9
штиль 0 14 км 8/0 7500 m
[Ci]
+10.6 +6.1 74 +10 +10 1019.8 995.5
штиль 0 14 км 8/0 7500 m
[Ci]
+10.6 +6.1 74 +10 +10 1019.8 995.5
ЮЗ 2 14 км 8/0 7500 m
[Ci]
+9.4 +6.1 80 +8 +8 1020.0 995.5
штиль 0 16 км 8/0 7500 m
[Ci]
+10.0 +5.6 74 +9 +9 1020.3 995.9
штиль 0 16 км 8/0 4500 m
[Ac Ci]
+9.4 +4.4 71 +9 +9 1020.3 995.9 +8.9 +11.7
З 2 16 км 8/0 4500 m
[Ac Ci]
+10.6 +5.0 68 +9 +9 1020.5 995.9
штиль 0 16 км 8/0 7500 m
[Ci]
+13.9 +5.0 55 +14 +14 1020.4 995.9
ЮЗ 2 16 км 8/0 7500 m
[Ci]
+17.2 +4.4 43 +18 +19 1020.6 996.2
ЮЗ 3 16 км 8/0 7500 m
[Ci]
+20.6 +3.9 33 +21 +25 комфорт 1020.2 995.9
нст 2 16 км 8/0 7500 m
[Ci]
+22.2 +2.8 28 +22 +28 комфорт 1019.8 995.5
нст 2 16 км 8/0 5100 m
[Ac Ci]
+22.8 +1.7 25 +22 +29 комфорт 1019.2 994.9 +9.4 +23.3
Ю 4 16 км 8/0 5100 m
[Ac Ci]
+23.9 0.0 21 +23 +28 комфорт 1018.2 993.9
Ю 4 16 км 8/0 4800 m
[Ac Ci]
+23.9 0.0 21 +23 +27 комфорт 1017.6 993.2
нст 3 16 км 8/0 5100 m
[Ac Ci]
+23.9 +0.6 22 +23 +25 комфорт 1017.2 992.9
ЮЗ 4 16 км 8/0 3600 m
[Ac Ci]
+23.9 -1.1 19 +23 +24 комфорт 1017.0 992.9
Ю 3 16 км 8/0 3300 m
[Ac Ci]
+22.8 -0.6 21 +22 +23 комфорт 1016.9 992.6
Ю 2 16 км 8/0 3000 m
[Ac Ci]
+21.1 +1.1 26 +21 +21 комфорт 1017.0 992.9 +21.1 +24.4
Ю 2 16 км 10/0 3000 m
[Ac Ci]
+18.9 +3.3 35 +20 +20 1016.9 992.6
ЮЗ 2 16 км 10/0 3300 m
[Ac Ci]
+18.3 +3.9 38 +19 +19 1016.9 992.6
ЮЗ 2 16 км 10/0 3300 m
[Ac Ci]
+18.3 +4.4 40 +19 +19 1016.8 992.6
ЮЗ 3 16 км 10/0 3300 m
[Ac Ci]
+18.3 +3.9 38 +19 +19 1016.6 992.6
ЮЗ 3 16 км 10/0 3000 m
[Ac]
+17.2 +3.9 41 +17 +17 1016.3 992.2
З 3 16 км слабый дождь 10/0 2550 m
[Ac As]
+17.2 +6.7 50 +17 +17 1016.3 992.2 +17.2 +21.1
ЮЗ 2 16 км 10/0 2400 m
[Ac]
+16.1 +6.7 54 +16 +16 1016.1 991.9
З 4 16 км 10/0 2250 m
[Ac]
+16.1 +6.7 54 +15 +15 1016.4 992.2
З 2 16 км слабый дождь 10/0 2100 m
[Ac As]
+15.6 +8.3 62 +16 +16 1016.2 992.2
ЮЗ 2 16 км 8/0 2400 m
[Ac Ci]
+15.6 +9.4 67 +16 +16 1015.8 991.9
Местоположение метеостанции Chicago-O`Hare International Airport: широта 41.9950 долгота -87.9336 высота над уровнем моря 203 м.
В архиве по умолчанию представлена погода в Чикаго за последние 1-2 суток. Обновление информации о фактической погоде в базе происходит ежечасно! Архивные данные за месяц целиком и за предыдущие месяцы Вы можете получить, выбрав интересующий диапазон дат из раскрывающегося списка и нажав кнопку "Ввод!".
Внимание! Архив погоды МЕТАР в базе сайта по станциям, не включенным в климатический монитор, хранится не более 60 дней. Нет смысла пытаться выбрать более раннюю дату.
*Определитесь, кто Вы:
Внимание! Время в таблицах - местное (без учета летнего времени). Для получения всемирного времени необходимо вычесть поправку, которая равна -6 ч.
Смотрите также архив погоды в соседних городах и на ближайших метеорологических станциях:
Партнеры нашего сайта:      
Пояснения к столбцам:
  • Ветер - указаны скорость ветра в м/с - средняя за 10 мин, порывы в срок и между сроками (в фигурных скобках) и направление, откуда дует ветер: С - северный,
  • СВ - северо-восточный, В - восточный, ЮВ - юго-восточный, Ю - южный, ЮЗ - юго-западный, З - западный, СЗ - северо-западный.
  • Видимость - горизонтальная дальность видимости в метрах или километрах. При видимости от 1 до 10 км при отсутствии осадков обычно наблюдается дымка, при ухудшении видимости до 1 км и менее - туман. В сухую погоду видимость может ухудшаться дымом, пылью или мглою.
  • Явления - указаны атмосферные явления, наблюдавшиеся в срок или в последний час перед сроком; фигурными скобками обозначены явления, наблюдавшиеся между сроками (за 1-3 часа до срока); квадратными скобками обозначены град или гололедные отложения с указанием их диаметра в мм.
  • Облачность - указаны через наклонную черту общая и нижняя облачность в баллах и высота нижней границы облаков в метрах; квадратными скобками обозначены формы облаков: Ci - перистые, Cs - перисто-слоистые, Cc - перисто-кучевые, Ac - высококучевые, As - высокослоистые, Sc - слоисто-кучевые, Ns - слоисто-дождевые, Cu - кучевые, Cb - кучево-дождевые. Подробнее классификацию облаков см. в Атласе облаков (PDF).
  • T - Температура воздуха - температура, измеренная на высоте 2 м над землей.
  • Td - Температура точки росы - температура, при понижении до которой содержащийся в воздухе водяной пар достигнет насыщения.
  • f - Относительная влажность воздуха - влажноcть воздуха, измеренная на высоте 2 м над землей.
  • Te - Эффективная температура - температура, которую ощущает одетый по сезону человек в тени. Характеристика душности погоды. При расчете учитывается влияние влажности воздуха и скорости ветра на теплоощущения человека.
  • Tes - Эффективная температура на солнце - температура, которую ощущает человек, с поправкой на солнечный нагрев. Характеристика знойности погоды. Зависит от высоты солнца над горизонтом, облачности и скорости ветра. Ночью, в пасмурную погоду, а также при ветре 12 м/с и более поправка равна нулю.
  • P - Атмосферное давление - приведенное к уровню моря атмосферное давление.
  • Po - Атмосферное давление - измеренное на уровне метеостанции атмосферное давление.
  • Tmin - Минимальная температура - минимум температуры воздуха на высоте 2 м над землей.
  • Tmax - Максимальная температура - максимум температуры воздуха на высоте 2 м над землей.
  • R - Количество осадков - Количество выпавших осадков за период времени, мм. При наведении курсора мыши на число - период времени, за который выпало указанное количество осадков.
  • R24 - Количество осадков - Количество выпавших осадков за 24 часа, мм.
  • S - Снежный покров - Высота снежного покрова, см. При наведении курсора мыши на число - состояние снежного покрова и степень покрытия местности в баллах.